Date,TemperatureHighF,TemperatureAvgF,TemperatureLowF,DewpointHighF,DewpointAvgF,DewpointLowF,HumidityHigh,HumidityAvg,HumidityLow,PressureMaxIn,PressureMinIn,WindSpeedMaxMPH,WindSpeedAvgMPH,GustSpeedMaxMPH,PrecipitationSumIn
2013-11-1,71.4,55.7,43.9,49.6,40.9,34.4,72,58,44,30.03,29.92,5,0,9,0.00
2013-11-2,68.0,53.8,44.6,53.3,42.5,34.5,75,66,56,29.95,29.86,10,1,24,0.00
2013-11-3,65.1,51.0,40.5,44.9,36.8,30.3,82,60,38,29.95,29.86,9,1,19,0.00
2013-11-4,64.1,47.8,37.6,41.2,33.2,28.1,73,58,37,29.92,29.83,10,2,18,0.00
2013-11-5,67.8,58.7,46.9,42.0,36.6,30.4,53,44,37,30.12,30.03,2,-93,6,0.00
2013-11-6,68.6,53.8,41.7,44.0,36.3,29.5,66,52,40,30.15,30.07,3,0,9,0.00
2013-11-7,68.6,55.2,45.9,48.2,39.4,-99.9,68,56,42,30.07,30.01,7,0,17,0.00
2013-11-8,67.3,54.3,44.0,54.8,44.2,36.3,78,69,53,30.01,29.89,6,1,11,0.00
2013-11-9,67.4,52.6,41.9,52.5,43.4,35.9,84,72,54,29.95,29.89,7,1,64,0.00
2013-11-10,61.9,52.1,43.2,51.4,44.9,37.5,83,77,68,30.03,29.92,9,1,12,0.00
2013-11-11,66.1,57.5,51.2,53.5,49.5,46.1,83,75,62,30.07,29.98,5,1,9,0.00
2013-11-12,69.4,59.4,51.1,54.3,47.9,39.7,81,67,48,30.15,30.07,10,1,20,0.00
2013-11-13,71.7,56.4,46.4,56.1,45.0,37.2,80,66,50,30.15,30.03,6,1,9,0.00
2013-11-14,62.2,56.0,49.9,53.7,48.7,42.5,83,77,71,30.03,29.80,8,1,14,0.00
2013-11-15,64.3,52.2,43.0,46.7,40.3,34.5,83,65,44,29.80,29.65,8,1,15,0.00
2013-11-16,61.9,51.0,42.3,47.1,40.0,33.2,76,66,55,29.86,29.71,11,2,16,0.00
2013-11-17,60.3,50.6,42.3,48.3,41.2,34.2,81,70,62,30.01,29.86,9,1,18,0.00
2013-11-18,59.9,51.0,42.1,48.5,41.8,34.4,80,71,62,30.03,29.98,9,2,15,0.04
2013-11-19,63.7,56.5,48.9,53.4,48.8,40.3,84,75,68,30.03,29.86,7,1,11,0.33
2013-11-20,63.3,57.4,52.0,58.8,53.5,47.8,90,87,84,29.86,29.77,11,0,77,0.50
2013-11-21,60.8,54.1,48.4,51.0,42.7,30.6,91,68,41,29.92,29.80,11,2,20,0.00
2013-11-22,52.4,43.6,39.7,34.4,28.8,26.5,61,56,50,29.95,29.92,5,0,20,0.00
2013-11-23,63.0,54.6,45.5,40.1,35.5,30.6,56,49,40,30.01,29.92,4,0,10,0.00
2013-11-24,62.1,48.8,38.8,43.2,34.6,26.9,72,58,47,30.15,30.01,5,0,11,0.00
2013-11-25,62.8,48.9,38.4,44.1,36.1,27.8,74,62,50,30.21,30.15,4,0,9,0.00
2013-11-26,61.9,50.7,42.1,45.8,39.6,33.0,76,66,54,30.15,29.92,18,0,51,0.00
2013-11-27,56.1,48.7,41.7,43.5,38.8,33.0,73,69,62,29.92,29.77,0,0,0,0.00
2013-11-28,65.8,53.4,46.2,47.9,41.5,36.2,77,64,48,29.98,29.80,5,0,8,0.00
2013-11-29,66.1,51.2,41.0,48.1,38.8,32.0,78,63,47,30.12,29.98,4,0,7,0.00
2013-11-30,63.0,50.5,41.0,49.9,39.6,31.6,77,66,53,30.15,30.09,6,0,27,0.00